Lapse_Rate
6.2 6.3 6.3 6.3 6.3 6.4 6.2 6.0 6.0 5.8 5.8 6.0 6.1 6.0 6.0 6.1 5.6 5.7 5.6 5.8 5.6 5.6 5.8 5.6 5.8 6.0 6.1 6.2 6.3 6.3 6.3 6.2 6.2
6.3 6.3 6.3 6.3 6.2 6.3 6.3 6.2 6.1 6.0 5.8 5.9 6.1 6.1 6.3 6.3 6.1 5.5 5.4 5.7 5.6 5.5 5.7 5.5 5.5 5.9 6.0 6.1 6.3 6.4 6.4 6.3 6.3
6.5 6.7 6.6 6.6 6.4 6.3 6.2 6.2 6.2 6.1 6.1 6.0 5.9 5.9 6.1 6.5 6.3 6.0 5.6 5.4 5.4 5.4 5.6 5.5 5.4 5.8 6.0 6.2 6.4 6.5 6.4 6.4 6.2
6.8 6.7 6.8 6.8 6.8 6.6 6.5 6.4 6.4 6.4 6.3 6.2 6.3 6.0 5.9 6.2 6.1 6.5 5.9 5.7 5.5 5.5 5.6 5.4 5.5 5.7 5.9 6.2 6.3 6.3 6.3 6.2 6.1
6.9 6.9 6.9 6.9 6.7 6.8 6.7 6.8 6.8 6.7 6.7 6.6 6.4 6.3 6.1 6.2 5.9 5.9 5.5 5.6 5.4 5.8 5.8 5.6 5.6 5.6 5.8 6.1 6.2 6.1 6.2 6.1 6.0
7.1 7.1 7.1 7.0 6.9 6.8 6.7 6.8 6.9 7.1 7.0 6.8 6.7 6.6 6.3 6.0 5.7 5.9 5.2 5.2 5.3 5.8 6.0 5.7 5.8 5.8 5.9 6.1 6.1 6.0 6.0 6.0 5.8
6.9 7.0 7.1 7.1 7.2 7.1 7.1 7.3 7.2 7.1 7.1 7.0 6.9 6.8 6.5 6.2 5.7 6.1 6.1 6.3 5.9 5.8 6.1 5.8 5.8 5.9 5.9 6.0 6.1 6.0 6.0 6.0 5.8
6.7 6.8 6.8 6.8 6.8 6.9 7.1 7.2 7.4 7.6 7.5 7.4 7.2 7.1 6.9 6.3 6.2 6.1 6.3 6.1 6.4 6.3 6.1 5.9 5.7 5.8 5.9 6.0 6.0 6.0 6.0 6.0 5.9
6.6 6.7 6.7 6.8 6.9 7.0 7.0 6.9 6.9 7.0 7.2 7.1 7.1 7.0 7.0 6.8 6.2 6.1 6.4 6.7 6.7 6.3 6.1 6.1 5.9 5.7 5.9 5.9 6.0 6.1 6.0 6.0 6.1
6.5 6.5 6.5 6.6 6.7 6.8 6.9 6.9 6.8 6.9 6.9 7.0 7.1 7.0 6.9 7.0 6.8 6.5 6.3 6.5 6.6 6.3 6.1 6.5 6.1 5.9 5.8 5.8 6.2 6.2 6.1 6.0 6.1
6.4 6.4 6.4 6.5 6.5 6.6 6.6 6.7 6.7 6.7 6.8 6.8 6.7 6.9 6.9 7.0 7.0 6.8 6.8 6.5 6.8 6.5 6.2 6.1 6.5 6.3 5.8 5.8 6.1 6.2 6.1 5.9 6.1
6.3 6.3 6.3 6.3 6.4 6.5 6.5 6.5 6.6 6.8 6.8 6.8 6.8 6.7 6.9 6.9 7.0 7.0 6.9 6.7 6.7 6.9 6.1 6.1 5.9 6.4 6.2 5.8 5.9 6.2 6.2 6.0 6.0
6.1 6.2 6.2 6.3 6.4 6.5 6.5 6.5 6.6 6.6 6.6 6.6 6.7 6.8 6.9 7.1 6.9 6.9 6.9 6.9 6.4 6.8 6.8 6.1 5.6 6.4 6.5 5.9 5.9 6.0 6.2 6.1 6.1
6.1 6.1 6.2 6.3 6.4 6.4 6.5 6.4 6.3 6.3 6.5 6.8 6.7 6.8 6.7 6.9 7.1 7.1 6.9 6.9 6.7 6.9 6.7 6.3 6.2 5.6 6.5 6.4 5.9 5.9 6.2 6.2 6.2
5.9 6.0 6.2 6.3 6.4 6.6 6.6 6.6 6.7 6.7 6.7 6.7 6.8 6.8 6.7 6.5 6.8 6.9 7.0 6.7 6.8 6.2 7.1 6.8 6.2 6.3 6.1 6.3 6.2 6.0 6.1 6.3 6.2
6.0 6.0 6.2 6.4 6.5 6.6 6.6 6.7 6.7 6.6 6.5 6.7 6.8 6.7 6.5 6.2 6.1 6.4 5.9 6.6 6.6 6.2 6.4 7.0 6.4 6.0 5.8 5.8 6.2 6.1 6.1 6.3 6.3
6.0 6.1 6.1 6.2 6.1 6.1 5.9 5.7 5.7 5.6 5.2 5.0 4.9 5.8 6.3 5.9 5.3 5.4 5.4 5.5 5.7 6.5 6.0 5.8 6.3 6.2 5.9 5.7 6.0 6.3 6.2 6.2 6.4
5.8 5.8 5.7 5.6 5.4 5.1 4.9 4.4 4.0 4.1 4.2 4.0 3.3 3.6 4.5 5.0 5.2 4.6 5.4 5.1 5.2 5.4 5.8 5.5 5.8 6.2 6.1 5.7 5.6 6.3 6.3 6.2 6.3
5.5 5.4 5.3 5.1 4.6 4.3 4.0 3.7 3.8 3.9 3.9 3.8 4.0 3.9 3.4 3.5 4.8 4.4 4.9 5.0 5.3 5.1 5.0 5.4 5.1 5.7 6.5 5.7 5.7 6.2 6.4 6.3 6.3
5.3 5.1 4.7 4.2 3.6 3.4 3.5 3.6 3.5 4.1 4.4 4.4 4.2 4.6 4.4 4.2 3.8 4.2 5.2 5.6 5.0 5.2 4.7 4.4 4.3 4.8 5.6 5.9 5.9 6.0 6.4 6.3 6.2
Wind_Speed
15 14 14 14 13 12 12 10 5 5 4 4 4 3 2 3 5 3 4 13 9 11 12 10 11 10 9 9 7 7 5 6 5
14 14 15 15 14 12 11 9 8 6 5 7 7 7 4 1 7 8 2 9 13 11 10 9 8 7 7 7 3 5 6 6 5
12 12 15 15 15 15 14 11 7 4 4 6 8 6 1 7 6 8 6 8 10 10 10 9 8 7 6 5 5 6 6 6 5
16 9 13 12 12 15 14 12 9 8 3 8 10 9 4 2 6 11 14 9 13 10 11 9 7 7 6 4 5 6 6 6 5
22 12 15 11 10 13 10 11 10 9 5 10 13 11 9 6 4 2 11 9 10 12 13 9 7 6 6 7 6 6 7 7 6
21 20 21 19 15 16 11 7 8 7 3 6 10 12 10 8 8 8 10 19 16 16 16 13 9 6 7 7 7 7 8 8 7
18 21 21 20 20 20 19 7 4 3 3 3 9 9 9 11 10 11 23 30 21 19 20 19 14 9 8 10 9 8 7 6 4
18 17 18 18 16 16 16 16 7 4 3 3 6 7 9 8 8 12 25 24 22 18 22 22 18 15 13 11 11 11 9 8 8
12 12 16 16 18 14 17 13 16 13 6 8 9 10 8 9 9 12 22 22 19 20 22 23 23 20 17 14 13 11 12 10 9
11 11 13 14 17 14 13 13 13 11 12 7 8 7 9 13 11 12 19 22 20 20 22 22 21 24 22 17 16 16 12 12 13
10 8 9 10 14 14 13 12 8 9 11 8 7 7 8 9 10 11 13 19 20 21 22 25 22 21 25 22 18 17 15 14 13
10 6 6 9 14 14 12 10 10 7 8 10 8 5 8 8 11 12 15 15 21 23 22 23 24 23 23 25 22 20 17 16 15
10 5 5 10 11 10 5 5 5 6 7 9 10 9 6 8 12 15 14 14 15 20 23 22 26 27 24 25 26 24 20 19 17
9 7 9 13 8 5 5 5 5 5 7 9 11 11 11 7 11 11 15 19 14 16 22 23 23 26 27 26 26 26 22 21 19
9 8 8 9 4 4 5 5 4 5 8 10 11 11 12 10 10 12 13 16 20 15 20 22 20 25 28 28 27 27 26 23 21
9 7 5 6 3 4 5 4 6 4 4 7 9 10 14 16 12 10 10 11 14 19 14 18 20 20 27 29 30 30 28 25 23
9 7 4 4 4 4 5 4 4 3 4 4 8 7 10 11 11 11 9 12 9 11 19 17 20 21 20 24 31 30 29 28 25
10 8 5 4 4 4 4 5 5 5 4 4 3 5 7 13 16 14 12 16 9 10 13 15 22 23 22 23 28 30 30 28 27
9 9 8 5 3 5 4 6 5 5 7 6 5 4 7 12 14 13 11 12 16 14 10 14 16 24 21 24 26 29 29 28 27
9 10 9 5 3 4 6 6 6 7 9 6 2 4 8 11 12 14 13 9 13 15 13 13 14 21 21 21 24 30 28 24 27
Wind_Direction
36 34 25 16 13 9 360 347 341 326 267 204 187 150 119 138 230 223 133 137 144 135 131 123 112 108 107 112 124 113 126 136 126
35 42 24 15 8 2 3 357 342 327 268 224 202 192 180 193 343 335 42 138 145 142 135 135 126 129 122 109 144 142 125 124 129
36 42 26 20 11 1 359 354 342 322 309 226 194 182 106 345 10 14 40 157 155 154 150 144 138 134 128 146 156 178 142 145 125
13 30 21 13 6 1 359 357 346 328 278 200 193 161 105 19 344 14 352 159 167 171 161 158 165 164 161 189 182 157 153 144 165
357 20 1 345 344 349 347 350 348 334 274 196 180 167 153 194 186 253 294 245 179 176 166 174 184 188 186 181 175 173 159 179 187
353 0 358 359 347 342 333 325 353 5 275 237 191 181 184 215 198 180 217 227 196 185 179 180 175 205 194 179 183 182 185 179 135
8 350 3 357 353 351 351 350 338 40 330 227 234 202 206 199 199 191 199 197 196 196 190 191 184 184 192 195 195 197 193 177 177
2 359 350 352 350 343 337 344 344 306 307 287 270 238 222 218 212 229 205 197 192 207 200 192 180 173 190 212 191 186 188 185 200
358 358 349 353 347 347 349 343 334 330 230 220 226 227 226 244 251 238 208 201 201 197 214 199 181 170 185 204 192 189 189 202 186
8 348 351 347 357 358 348 339 330 325 318 256 222 233 228 216 233 244 212 205 197 202 198 207 202 176 177 191 196 188 190 209 200
358 346 344 354 358 348 346 332 328 323 321 311 260 229 250 274 239 240 245 212 202 201 212 204 207 201 178 184 188 186 199 212 203
344 337 338 346 353 342 330 322 324 324 322 314 303 257 229 247 263 242 238 218 213 206 206 220 198 210 195 182 184 183 191 205 207
349 342 330 351 350 340 332 327 333 328 325 323 314 303 236 228 242 248 257 222 212 216 211 216 208 205 208 191 184 181 194 202 206
353 338 331 348 349 339 346 339 327 323 315 309 306 298 299 253 242 238 239 249 224 206 211 211 223 208 206 202 193 186 184 200 206
337 326 326 336 333 340 331 324 316 335 322 319 312 307 297 285 277 244 234 236 236 223 204 208 214 208 205 206 199 187 186 196 204
317 298 309 320 325 316 329 317 319 311 304 316 326 320 311 302 294 280 249 237 230 230 212 203 204 210 209 206 203 197 189 193 200
305 311 308 321 318 323 310 307 303 302 305 326 319 318 312 297 295 281 255 243 231 226 228 206 202 200 201 206 200 197 191 191 198
308 307 322 308 315 301 290 294 288 302 303 290 257 309 303 319 302 302 308 270 225 225 221 218 202 194 194 197 200 197 191 191 192
300 310 297 299 285 292 286 300 285 285 291 291 261 259 283 299 299 291 289 316 261 227 217 213 204 192 185 188 193 189 192 188 185
307 301 303 295 284 278 276 288 294 287 285 279 295 281 294 287 279 288 294 293 289 240 225 211 208 190 182 182 187 185 185 188 182